STARLINK-11696, 64324

Orbit data source: Space-Track

STARLINK-11696, 64324 is a payload satellite owned by SpaceX/Seattle (US) in LEO that was launched on Tue, 10 Jun 2025 UTC via an FALCON 9 launch vehicle from the Air Force Eastern Test Range (AFETR). Payload-class satellites include a variety of spacecraft equipped with specific instruments for various scientific and technological missions. These include communications satellites like Starlink; space stations such as the ISS; scientific satellites like the Hubble; Earth observation satellites from companies like Planet Labs, Umbra, and HawkEye 360; GPS; miniature CubeSats for education and research; and military/defense satellites.

Loading next visibility...
Identifier
64324, 2025-124H
Orbit
LEO
Country
Flag of USUS
Related business
Manufacturer
SpaceX/Seattle
Mission
Operational Commercial Communications
Bus & Motor
STARLINK V2MD, Unknown motor
Mass
960 kg wet, ~910 kg dry
Launch date (UTC)
2025-06-10 (11 months ago)
Launch vehicle
FALCON 9
Launch site
Air Force Eastern Test Range (AFETR)
Object type
Payload
Rocket body
Debris
Shape & HBR
Box + 2 Pan, 18.1 m
Radar Cross Section
36.964 m², Large (>1 m²)

Expand to show TLE details & history
Last TLE update: 8 hours ago

TLE from 8 hours ago
0 STARLINK-11696
1 64324U 25124H   26119.91673827  .00243220  00000-0  18322-2 0  9996
2 64324  42.9992  80.2024 0001831 219.9117 140.1616 15.70993667 50899
Epoch: 2026-04-29T22:00Z
TLE epoch observation values (Epoch: 2026-04-29T22:00:06.186Z)
Latitude
-0.00004°
Longitude
-107.69424°
Altitude
356.774 km
Speed
7.696 km/s
True Right ascension
05h 20m 48s
True Declination
0° 00' 00"
Sunlit
Object was in daylight at epoch
Visualization orbit readout
Latitude
Unknown
Longitude
Unknown
Altitude
Unknown
Speed
Unknown
Apparent Right ascension
Unknown
Apparent Declination
Unknown
Sunlit
N/A
Visualization observer readout
Local Sidereal Time
13:38:20
Azimuth
Unknown
Elevation
Unknown
Doppler factor
Unknown
Orbital elements
Apogee altitude
359.271 km
Perigee altitude
356.804 km
Semi-major axis
6,736.175 km
Eccentricity
0.00018
Inclination
42.9992°
RAAN
80.2024°
Arg. of periapsis
219.9117°
True anomaly
140.17504°
Mean anomaly
140.1616°
Eccentric anomaly
140.16832°
Mean motion
3.92575 °/min
Orbital period
91.7 mins
BSTAR
0.0018322
Loading maneuver chart data...
Computing Atmospheric mass density...
Loading historical data...
Loading historical data...
Loading historical data...
Loading historical data...
Loading historical data...
Loading historical data...
Loading historical data...

Documentation

Showing up to 5 results
|